GFSSE_500_spd_000.txt.gz
Wind_Speed
24 25 22 22 22 23 23 23 22 20 19 18 18 17 17 16 15 16 14 13 13 13 12 11 12 12 10 11 12 13 13 15 16 14 16 17 19 19 20 19 18 16 14
21 20 19 20 20 21 21 21 21 20 19 19 19 18 18 17 14 14 13 12 12 13 12 11 10 10 10 11 13 14 14 16 16 15 15 16 16 17 17 16 17 16 15
19 19 19 18 18 19 19 19 19 19 17 17 16 16 16 15 14 14 13 12 11 10 10 10 9 9 9 12 14 14 14 15 14 14 13 13 13 13 14 13 12 12 11
16 17 17 17 17 17 17 16 17 16 15 16 15 14 15 15 14 14 11 10 11 9 9 9 9 9 9 11 14 13 12 13 12 11 9 10 11 10 10 10 9 8 7
16 16 16 16 16 16 15 15 15 14 13 13 14 13 13 15 14 13 10 8 9 9 9 7 8 10 9 10 12 11 10 10 9 7 6 6 5 7 7 7 6 5 4
15 14 13 14 15 15 15 14 13 12 13 12 13 13 12 13 12 12 11 8 7 8 8 7 8 7 9 9 10 9 10 8 8 7 5 6 4 6 7 7 7 6 4
14 13 14 13 14 14 12 11 12 12 11 10 9 9 9 9 8 8 10 8 7 7 7 8 7 8 6 8 9 7 7 7 7 7 4 6 6 7 7 5 4 3 2
18 16 15 14 14 12 11 11 10 10 9 8 8 6 6 5 4 3 4 5 6 6 6 6 7 6 6 6 8 8 7 7 6 4 6 6 7 6 6 4 2 1 2
16 17 15 13 13 13 13 14 13 12 10 8 7 6 5 4 3 3 1 1 1 1 4 6 7 8 7 6 7 8 9 8 8 8 5 7 7 6 6 4 2 2 3
14 14 14 13 11 10 9 9 9 9 10 10 9 8 6 5 4 2 2 4 5 5 4 4 7 8 9 10 8 9 9 10 9 10 12 9 10 8 6 5 5 4 3
13 12 12 11 10 8 8 7 6 5 4 3 3 3 1 1 1 1 2 3 6 8 8 8 8 9 9 11 12 11 11 10 11 10 10 11 11 9 7 6 4 4 5
9 8 9 9 8 8 9 8 6 6 5 3 1 3 4 5 5 6 7 7 7 8 10 11 11 12 13 12 12 13 13 13 12 12 13 13 13 13 10 7 6 4 4
4 3 3 3 4 5 5 1 2 4 4 4 4 2 4 6 7 10 11 12 12 13 14 12 12 13 14 16 16 16 17 16 16 14 14 15 14 13 13 10 7 5 4
2 2 4 5 6 6 6 7 7 7 9 10 10 10 10 11 12 13 13 14 14 14 16 16 14 13 13 14 19 20 19 19 19 18 16 16 17 16 14 14 11 7 6
2 4 4 6 8 8 10 11 14 13 14 14 14 14 14 13 14 16 16 18 17 17 15 17 19 19 18 17 15 21 22 22 22 21 21 19 19 19 18 16 15 12 10
5 7 9 10 12 14 14 14 15 16 17 17 17 17 17 19 20 21 22 24 24 23 20 19 21 22 23 21 19 18 21 25 25 25 24 22 22 22 21 21 18 16 15
8 10 13 14 15 17 17 15 14 15 18 20 20 20 21 23 23 25 25 23 24 26 26 25 25 24 24 26 26 23 21 22 28 28 27 27 25 24 25 26 23 21 18
2 5 6 6 7 9 8 11 11 13 15 17 18 20 22 23 28 27 25 26 25 27 29 28 28 30 28 28 29 28 26 21 24 31 32 30 29 27 27 28 28 26 24
3 3 4 4 6 6 8 10 12 13 14 16 18 19 21 22 26 26 25 26 25 24 29 32 32 31 33 33 32 31 30 27 25 26 32 36 35 32 29 30 30 30 28
6 5 5 7 9 10 11 12 15 17 19 20 22 22 24 25 26 25 25 24 25 26 28 30 31 33 32 35 37 35 34 32 31 28 28 33 37 38 35 32 32 32 32
7 9 8 8 9 11 13 16 19 21 23 24 26 28 26 27 27 27 28 27 27 27 27 31 31 32 33 35 36 37 37 35 34 34 30 28 32 37 39 37 36 35 35
6 6 6 7 10 13 16 18 21 23 25 25 26 27 28 28 27 27 26 26 27 28 28 28 29 29 32 36 35 38 36 39 40 41 40 33 30 33 36 39 40 39 38
8 10 12 13 14 17 19 21 22 23 25 26 26 27 29 31 31 31 30 30 30 30 32 33 34 34 32 34 36 39 38 36 41 43 46 42 38 35 33 36 39 41 41
8 10 13 15 16 18 20 21 21 22 24 25 25 27 29 32 33 34 36 37 37 37 37 37 37 37 38 35 37 37 38 41 42 44 47 47 46 42 39 35 37 41 43
11 12 14 18 20 21 22 21 21 22 24 25 26 28 28 32 33 35 38 40 40 41 40 38 38 37 39 39 39 40 39 39 43 45 46 48 50 47 43 41 37 37 41
15 15 17 20 23 24 24 24 24 25 27 28 28 29 31 33 35 38 42 39 39 41 39 39 39 37 37 38 39 41 41 41 41 45 48 45 50 49 46 42 38 34 37

GFSSE_500_spd_003.txt.gz
Wind_Speed
22 20 21 18 20 22 24 24 23 20 19 18 16 16 14 14 14 14 13 11 10 10 10 10 10 8 9 9 11 12 11 13 14 13 13 13 16 16 16 16 15 15 13
19 17 18 17 18 19 21 22 21 19 18 17 17 16 14 14 12 12 11 10 10 10 10 10 9 9 9 10 12 12 13 14 15 13 12 12 14 15 15 15 15 14 12
16 16 17 17 17 17 18 18 18 17 17 17 15 15 13 12 11 11 10 10 9 8 8 8 8 9 10 11 13 12 12 13 13 12 12 9 12 11 12 12 11 11 10
14 15 16 16 15 15 16 15 15 15 14 14 14 13 13 11 10 11 10 10 10 8 6 7 6 8 10 11 10 10 11 11 12 11 8 9 7 9 9 9 8 7 7
13 13 14 12 12 12 12 12 12 12 12 11 12 13 13 11 9 8 8 8 9 9 7 7 7 8 11 11 9 8 9 9 8 7 4 6 4 5 6 6 5 5 5
12 11 12 11 9 10 10 9 9 9 8 8 9 10 11 10 9 8 7 7 6 7 7 7 6 8 10 11 11 8 6 8 10 2 6 4 3 3 3 5 5 5 4
10 10 10 10 10 10 8 8 7 7 7 7 7 7 8 8 7 7 6 5 4 5 6 6 7 7 9 10 12 8 6 5 4 3 2 1 1 3 2 2 2 2 2
11 11 10 9 9 8 9 8 8 7 7 6 5 5 4 4 4 3 4 3 2 2 3 4 5 4 6 8 8 8 6 6 5 4 2 1 2 2 2 2 3 3 2
14 13 11 10 9 9 8 8 7 6 4 3 3 2 2 2 2 1 0 0 1 1 2 4 3 4 4 3 5 7 8 8 8 7 4 5 4 3 4 5 6 4 3
12 11 10 10 11 11 8 7 8 7 6 4 3 2 1 1 1 1 3 4 5 4 5 4 5 6 7 7 7 7 10 11 11 11 8 6 7 7 5 6 5 4 3
9 8 7 7 6 7 7 5 4 3 1 0 1 1 3 4 4 4 7 7 7 9 7 7 7 8 9 11 12 11 12 12 13 13 12 13 10 10 6 5 3 3 1
6 7 5 3 5 5 6 6 4 3 1 1 4 6 8 8 8 9 11 11 11 12 11 11 11 13 12 14 14 15 16 15 15 15 14 15 15 14 11 7 6 3 2
3 6 6 9 8 6 4 7 8 7 8 8 8 8 10 10 12 13 14 15 15 15 14 15 15 14 16 17 22 16 17 17 17 18 17 17 16 15 16 12 8 6 5
3 4 4 5 5 5 8 10 12 13 13 14 13 13 13 13 14 16 16 17 17 18 16 15 16 17 15 14 15 17 19 19 20 20 18 18 17 16 16 16 12 9 7
2 3 5 7 10 10 11 12 14 13 15 17 17 16 18 17 18 17 20 20 21 20 20 20 18 18 19 19 18 17 16 20 21 24 22 22 19 19 18 18 15 13 10
2 5 8 11 13 16 14 15 15 14 13 15 18 19 20 20 21 23 23 23 25 25 26 25 24 22 22 21 20 20 18 17 22 25 26 26 25 22 22 21 20 17 15
1 2 4 8 12 14 13 12 11 12 14 14 14 16 17 19 21 24 25 26 27 29 29 30 29 29 28 27 24 23 24 22 19 24 28 28 27 27 25 25 24 22 19
1 2 5 6 6 7 7 8 8 10 12 13 15 16 17 18 20 22 23 23 22 23 25 26 29 32 34 33 30 28 27 25 24 22 26 31 30 29 27 27 27 26 24
4 4 5 6 7 8 9 10 12 14 16 17 18 19 19 22 24 23 24 24 23 23 24 26 28 30 29 34 34 32 32 30 28 27 25 27 34 34 32 30 28 28 28
5 6 6 8 9 9 10 13 16 18 19 20 21 22 21 22 23 23 24 24 26 26 26 26 28 30 30 31 29 31 31 33 33 32 31 29 29 35 38 35 34 29 30
8 8 8 9 10 11 13 16 19 21 22 23 23 24 24 24 25 26 26 27 27 29 30 30 30 29 30 32 31 32 33 33 34 35 37 35 32 31 35 39 38 38 33
7 8 9 10 11 13 16 17 19 22 23 24 23 23 23 24 24 26 27 29 29 31 33 35 36 34 32 32 31 34 33 34 33 36 39 39 37 35 33 33 37 39 39
8 9 11 13 14 15 16 18 19 20 22 25 27 26 26 27 28 30 32 32 32 34 34 36 36 38 37 35 35 35 35 36 37 38 39 41 43 42 39 35 33 36 40
9 10 12 14 16 16 17 19 21 21 22 23 26 27 27 28 29 30 32 34 37 40 36 36 38 39 40 38 38 37 37 38 39 38 39 39 42 45 46 43 39 36 37
11 12 13 15 16 18 20 21 22 24 24 25 26 26 27 28 28 29 31 34 36 41 43 41 40 39 38 36 39 38 38 38 40 42 39 41 40 35 47 48 47 42 39
14 15 16 17 19 21 22 23 24 26 27 28 27 28 28 29 29 30 33 32 35 39 41 37 36 32 33 33 31 33 36 38 40 44 44 41 44 42 41 55 49 48 43

GFSSE_500_spd_006.txt.gz
Wind_Speed
17 15 17 15 16 16 22 22 19 18 18 16 16 12 11 8 9 8 8 8 7 8 7 8 7 6 7 8 8 9 10 12 15 14 15 16 16 18 17 16 14 14 14
16 15 16 16 16 18 20 20 19 17 16 14 15 11 12 11 10 9 8 8 7 7 8 8 6 7 6 8 8 9 11 14 14 13 14 14 15 16 16 15 14 13 13
14 13 14 15 15 15 17 17 16 17 15 13 13 12 12 11 10 9 7 6 6 8 8 8 7 7 7 8 9 10 10 11 12 12 9 11 12 13 13 13 12 11 10
13 13 14 14 13 12 13 13 14 13 13 12 11 9 11 9 7 6 5 4 6 7 8 7 6 8 8 9 10 9 9 9 10 7 10 6 7 9 10 9 10 10 10
13 12 12 12 10 9 9 9 9 9 8 8 8 8 8 8 6 6 5 4 4 5 6 5 5 8 9 9 8 7 8 9 9 7 5 5 6 6 7 7 9 9 8
12 11 11 10 7 6 5 7 6 6 6 6 6 6 6 4 4 3 3 2 5 4 4 4 5 7 9 9 7 5 4 7 10 12 5 5 6 5 5 7 8 8 7
10 9 8 8 6 4 3 3 4 3 4 3 3 2 3 2 2 2 2 2 3 4 3 3 2 4 8 9 8 5 2 1 13 4 3 3 3 4 4 4 6 7 7
10 10 8 7 5 3 3 2 3 3 4 4 3 2 2 2 2 1 2 4 4 2 3 2 2 1 5 8 9 7 4 2 4 5 4 6 3 3 4 5 7 8 8
13 11 10 9 9 7 5 5 4 4 4 4 3 4 4 5 6 5 5 3 2 2 4 4 4 4 3 4 7 8 9 7 6 3 6 3 6 6 5 5 7 9 8
12 10 11 12 11 11 10 8 9 7 7 7 7 6 7 8 9 6 5 10 9 6 4 7 8 7 7 7 6 7 10 11 10 9 2 8 7 7 8 6 4 6 7
11 11 10 8 8 8 9 7 6 4 3 3 4 6 8 9 8 12 5 8 14 11 9 8 9 11 10 10 12 11 11 13 14 14 14 14 10 10 8 7 3 3 5
9 9 9 11 11 9 11 12 14 11 7 4 6 8 10 12 11 13 14 10 13 11 12 13 12 12 13 14 16 16 14 15 14 18 17 12 11 14 11 9 4 3 3
12 12 11 10 11 12 8 12 12 13 14 14 14 13 9 12 13 14 15 17 17 18 16 17 14 13 15 15 16 15 16 14 17 18 16 15 10 13 14 12 7 6 5
6 6 7 8 9 10 9 11 12 14 14 13 14 15 16 15 17 16 16 17 18 17 19 18 17 17 17 16 14 12 12 16 17 17 17 16 17 18 16 14 12 9 8
2 2 4 7 9 11 11 11 12 12 12 12 13 15 16 17 18 19 21 22 23 23 20 20 21 20 20 20 19 18 16 13 16 19 19 21 19 19 17 15 14 14 12
3 1 3 6 7 9 10 10 10 10 12 12 12 13 14 15 16 18 20 21 22 21 22 22 22 23 23 24 23 22 22 19 15 16 21 22 22 22 20 19 19 17 15
1 1 1 2 5 6 6 7 8 10 12 14 15 15 15 16 17 18 18 20 19 20 20 21 21 23 23 25 26 28 26 25 22 20 19 22 26 25 24 23 22 22 20
3 2 2 3 5 5 5 7 8 11 14 14 15 17 18 18 18 18 23 22 22 20 19 21 22 24 27 25 24 29 32 30 26 22 23 22 24 29 27 25 24 24 23
4 4 4 6 7 8 7 7 10 13 14 15 17 16 16 18 18 19 20 22 23 23 22 22 21 22 22 26 27 28 28 31 31 29 26 26 25 25 30 29 27 26 24
4 5 5 7 7 8 11 12 13 15 16 17 17 17 18 17 18 17 19 19 22 25 26 27 28 29 28 26 25 27 28 28 28 29 31 29 29 29 27 31 32 29 28
5 7 8 9 10 11 12 14 16 17 18 19 19 19 19 18 18 20 21 22 24 26 27 29 31 31 32 33 29 27 27 27 30 31 31 32 32 32 32 30 30 35 33
8 9 9 10 11 12 13 15 16 18 20 23 23 23 22 21 22 22 23 24 25 27 29 30 32 31 32 35 35 33 28 29 30 32 35 34 34 35 35 34 32 32 36
9 9 11 12 14 15 15 17 17 19 21 21 23 25 24 25 25 24 24 26 28 29 30 33 36 34 32 34 35 35 35 30 32 33 33 36 36 35 37 37 37 33 33
10 10 11 12 14 16 17 20 19 19 21 23 25 26 26 27 27 26 27 27 28 29 31 32 35 37 34 32 33 34 34 33 34 33 37 36 37 37 38 42 42 39 36
13 12 13 14 16 19 20 21 21 21 23 25 27 28 27 27 28 29 31 31 31 33 33 35 36 37 39 35 33 33 33 31 30 31 32 37 39 39 33 43 46 42 42
15 15 16 17 18 20 21 23 24 25 25 27 28 28 29 29 30 28 32 33 33 34 34 36 37 37 41 40 36 35 32 31 30 31 30 33 39 41 46 44 44 35 40

GFSSE_500_spd_009.txt.gz
Wind_Speed
16 17 20 19 17 16 14 14 14 13 14 10 10 9 7 6 7 8 5 6 6 5 5 4 7 7 6 8 10 10 12 13 15 16 16 19 20 20 19 18 17 15 14
17 18 15 15 14 14 15 14 14 12 11 8 9 9 4 7 6 7 5 4 4 5 5 5 7 5 5 8 9 11 11 12 13 12 15 17 18 18 18 17 16 15 12
15 16 17 16 16 14 14 13 12 11 10 8 6 6 4 6 6 7 6 5 3 2 4 5 6 4 5 7 8 8 8 10 10 10 10 14 15 14 15 14 12 12 10
14 15 16 16 14 13 13 12 11 11 9 7 5 7 5 6 5 6 6 4 4 1 1 2 3 3 6 7 6 6 6 6 9 7 7 9 12 12 11 12 12 12 11
14 14 14 14 12 11 9 8 7 6 5 4 4 5 5 4 4 5 6 6 4 0 2 2 1 3 5 7 5 4 4 6 3 8 3 8 9 10 10 11 11 11 10
14 13 13 12 11 10 8 7 7 6 6 5 4 4 4 5 5 5 4 4 5 4 2 2 1 3 3 4 4 3 4 4 3 6 4 7 8 9 9 9 10 11 11
12 12 11 10 10 8 7 7 6 6 7 8 7 6 5 4 5 5 6 6 5 6 5 5 3 2 3 3 4 3 2 2 1 9 2 3 6 7 7 8 9 11 10
13 12 12 11 10 9 9 8 8 10 10 10 8 6 5 6 6 6 5 6 6 7 6 6 6 5 3 5 7 8 4 4 2 4 5 5 4 5 7 8 8 10 10
13 12 12 13 13 12 12 11 12 12 12 11 9 9 9 10 9 8 7 6 7 7 8 8 7 5 6 5 7 10 10 8 8 10 3 2 2 3 6 8 8 8 9
12 12 14 15 14 13 11 10 8 7 8 8 8 8 8 11 9 6 9 7 7 7 6 6 6 6 6 7 9 10 11 10 13 12 11 3 7 3 4 7 8 8 8
14 14 12 12 10 12 10 8 7 5 4 5 8 10 10 11 9 6 6 8 10 8 9 8 6 8 8 8 10 12 14 12 14 13 14 11 4 6 5 4 6 7 7
18 19 19 18 16 14 15 16 15 14 12 10 8 9 9 8 9 12 9 10 12 12 14 12 9 11 13 12 12 13 16 15 13 14 13 11 11 10 12 7 4 5 5
15 14 13 13 13 13 13 13 13 12 10 10 11 12 13 11 10 11 14 13 13 14 14 15 13 11 14 12 12 15 16 16 13 15 14 11 9 8 12 10 8 5 5
10 9 9 9 10 10 10 11 10 10 10 10 11 12 13 16 17 15 14 14 14 15 16 13 15 15 14 15 15 14 15 13 12 15 16 13 12 12 12 11 12 10 8
8 6 7 8 7 9 8 7 8 10 10 9 11 13 14 15 15 16 16 15 16 15 15 15 13 15 15 16 17 17 18 17 15 12 16 17 16 15 14 13 14 13 12
6 5 5 8 7 7 7 8 10 12 13 13 12 12 14 14 15 16 17 19 18 17 15 15 17 16 16 17 19 19 19 21 21 17 15 18 20 20 18 17 16 16 14
5 6 4 6 6 7 7 9 10 11 12 12 12 12 12 13 12 15 17 17 17 17 18 17 17 18 19 19 20 19 19 22 24 24 21 19 20 22 22 20 19 18 18
4 4 4 5 7 6 6 8 10 11 12 14 15 14 14 13 14 14 16 17 17 18 18 19 19 18 19 20 20 22 22 20 22 25 27 23 22 22 23 24 22 21 21
3 3 4 5 5 6 7 8 10 11 12 13 13 13 13 13 13 12 14 15 16 18 19 20 21 22 22 22 19 19 21 24 24 23 27 30 25 24 24 24 27 24 24
5 4 5 5 6 7 7 9 10 11 12 13 14 15 14 13 11 12 14 14 15 18 19 22 24 26 24 23 23 23 23 21 23 26 24 29 31 28 26 27 26 28 27
5 5 6 7 7 9 9 10 11 13 14 15 16 16 17 16 16 15 15 16 18 19 20 21 23 26 28 28 23 22 25 25 22 23 26 27 29 30 31 29 29 27 30
4 4 5 6 6 7 10 13 14 15 16 18 19 20 21 20 19 19 19 19 20 20 22 23 25 26 28 29 29 25 23 27 25 26 26 27 30 31 31 33 33 32 31
4 6 8 8 9 11 12 15 16 15 15 16 18 20 22 23 24 23 23 23 24 25 25 25 26 28 29 31 31 29 26 23 23 28 27 30 30 32 33 33 36 35 36
6 8 10 10 10 11 12 13 15 16 15 17 19 20 21 23 24 25 26 27 28 29 30 30 30 31 31 32 32 33 32 29 26 21 27 28 32 33 36 36 36 40 36
9 11 11 13 13 14 15 17 17 18 20 21 22 24 25 26 26 27 30 31 32 33 33 33 34 35 35 35 34 34 33 33 32 28 22 27 25 31 37 41 41 38 35
13 13 14 15 15 16 18 19 20 21 22 23 23 25 27 27 27 28 30 30 32 33 34 34 35 36 37 38 37 36 34 33 35 35 31 29 28 32 32 37 41 41 44

GFSSE_500_spd_015.txt.gz
Wind_Speed
19 19 18 22 24 19 17 16 13 12 10 9 10 10 11 11 10 10 9 10 9 8 9 10 9 9 9 9 9 11 14 15 14 15 14 15 16 15 16 15 14 12 12
19 17 18 18 18 17 13 13 12 12 11 10 10 11 12 13 11 11 11 10 9 8 10 8 8 8 7 9 8 9 11 10 13 12 12 13 14 14 14 13 12 11 11
18 15 17 17 15 14 12 12 12 12 11 12 11 16 15 14 13 14 13 10 7 7 8 10 8 7 6 8 7 9 8 9 11 12 11 12 11 13 13 12 11 9 9
19 17 16 16 14 15 14 14 14 14 16 14 14 16 15 12 13 14 14 10 9 9 8 9 8 6 6 7 6 6 7 6 9 13 12 10 10 12 13 13 13 12 10
19 17 15 15 14 15 15 15 16 16 17 15 17 15 14 14 14 14 12 13 14 13 12 10 8 6 5 6 6 5 6 6 1 7 8 8 8 9 10 10 11 10 10
15 14 14 13 15 16 16 18 17 17 16 15 14 12 13 13 14 14 12 12 12 12 11 10 9 7 4 2 5 4 6 7 5 5 5 6 6 7 8 6 8 7 7
15 13 14 13 14 15 15 14 14 15 14 13 12 11 12 12 11 9 9 10 10 9 9 8 9 9 5 2 2 2 4 6 7 11 7 5 4 6 7 6 7 7 5
14 13 13 13 13 14 15 16 16 15 14 12 12 12 10 9 8 7 8 8 8 8 7 8 7 7 5 4 2 3 4 1 1 9 7 1 4 5 7 6 7 7 5
9 9 10 12 13 13 14 14 14 12 10 9 9 8 8 7 5 4 6 5 6 5 5 6 6 6 4 3 2 2 4 4 5 5 4 5 7 5 5 6 6 6 5
10 11 12 13 12 12 11 9 7 7 6 7 7 7 7 9 9 7 5 5 4 5 4 5 7 5 7 7 5 5 6 4 5 5 5 11 6 10 4 4 6 5 5
10 12 12 11 10 8 6 7 7 7 6 6 7 7 7 6 6 6 6 6 6 6 6 6 10 10 8 9 9 8 8 11 10 9 7 7 13 14 8 3 5 3 2
10 12 14 14 13 13 12 11 11 10 9 7 8 8 5 4 5 5 5 7 8 7 6 8 9 10 10 9 9 9 12 12 11 10 9 10 11 11 13 10 7 5 1
17 16 14 13 13 12 12 10 9 8 9 8 8 6 4 4 4 5 6 8 9 11 11 11 11 10 12 10 9 10 10 12 12 8 11 11 11 11 14 14 11 10 4
15 14 12 11 10 10 11 11 10 8 8 8 6 6 6 6 5 6 7 8 8 8 10 10 11 10 11 11 13 11 9 11 14 15 12 12 12 13 14 13 14 14 10
13 12 10 9 8 9 9 10 9 8 7 7 6 5 6 6 6 6 7 7 8 9 9 10 11 12 12 11 11 12 12 12 13 16 18 16 13 14 16 16 17 16 12
11 10 11 9 8 8 7 7 7 6 6 7 7 7 6 7 7 6 7 7 8 9 10 10 11 11 10 12 10 10 11 12 14 15 19 19 18 16 16 18 19 19 16
9 8 8 7 6 5 5 4 5 6 7 8 8 7 7 6 7 6 8 9 9 10 11 11 12 13 15 14 14 15 14 13 13 14 15 20 23 21 19 18 20 21 19
8 8 7 7 6 4 2 1 3 5 6 8 8 7 7 6 7 7 6 9 11 12 14 14 14 15 16 17 18 17 17 17 15 15 16 17 21 25 24 22 20 24 24
8 7 7 7 6 5 2 2 3 3 3 5 6 5 7 6 6 8 8 8 10 12 13 15 15 16 17 17 19 20 20 19 17 17 17 16 19 21 27 27 24 24 27
8 9 9 7 6 4 3 3 3 1 2 3 4 4 6 6 7 8 10 11 13 14 14 16 18 18 19 19 21 23 22 21 20 18 18 17 19 19 22 28 29 27 26
6 6 6 5 4 4 3 1 2 3 3 4 4 4 5 5 6 7 8 10 12 14 17 18 20 21 20 20 21 23 24 24 23 22 20 20 18 20 22 24 28 31 33
6 5 3 3 2 3 4 4 5 5 6 7 7 8 10 10 11 12 14 13 14 15 16 18 20 23 25 24 22 23 25 26 25 23 22 21 21 19 21 24 28 29 31
6 6 5 5 5 5 7 8 9 9 10 10 11 12 14 15 16 16 17 19 20 21 21 21 21 23 25 26 25 23 24 26 28 27 24 22 22 21 21 20 25 29 31
7 7 8 7 7 8 11 13 14 13 13 14 15 15 17 18 20 22 22 22 22 23 24 23 24 24 26 28 26 24 24 24 27 30 30 25 23 24 24 24 25 26 31
12 10 12 12 12 14 15 17 19 19 18 16 19 20 20 21 21 22 23 24 24 24 25 24 24 27 30 31 29 27 26 27 25 25 28 30 29 27 28 28 29 30 28
16 18 17 17 18 19 20 22 23 24 20 20 22 23 22 23 24 24 24 25 26 26 27 27 27 28 31 31 30 30 30 30 30 26 24 26 30 34 36 33 31 32 34

GFSSE_500_spd_021.txt.gz
Wind_Speed
22 19 17 18 22 24 18 18 16 18 18 17 16 18 16 18 18 17 15 14 14 15 14 14 12 12 12 13 14 15 15 14 15 15 16 15 14 14 14 13 11 10 9
23 21 18 14 14 17 15 20 18 18 19 16 17 16 16 17 17 16 13 14 15 14 14 14 14 13 12 12 11 14 14 12 13 13 13 12 11 12 13 13 12 11 9
15 16 14 16 18 19 19 17 18 17 16 15 16 16 16 16 16 15 14 14 12 14 13 13 12 12 10 10 8 11 13 15 11 12 12 12 12 12 11 9 9 10 10
16 16 15 16 17 17 15 15 14 14 15 15 15 16 16 17 16 16 15 14 13 12 13 12 12 11 9 8 8 8 9 9 8 8 10 10 9 11 11 10 8 7 8
17 16 16 16 15 14 13 12 13 13 15 15 16 17 17 15 15 15 16 16 15 13 12 10 11 10 9 7 6 6 6 7 7 7 8 9 8 7 8 8 7 7 7
15 16 15 13 13 13 14 14 15 15 15 15 14 13 13 13 13 13 13 13 13 13 13 12 9 7 5 6 6 6 3 2 14 2 4 9 8 6 3 6 5 7 6
13 13 13 12 12 13 13 14 13 13 12 11 11 11 11 11 11 11 11 10 10 10 11 10 8 7 4 3 3 3 3 3 6 3 2 5 4 6 5 5 4 5 5
11 11 11 11 10 12 13 13 11 11 12 11 12 12 12 11 10 10 9 8 7 8 8 7 6 5 4 4 2 2 3 5 5 7 5 4 1 3 5 5 4 4 4
7 9 10 11 12 12 12 11 12 13 12 12 12 12 12 12 10 8 7 5 3 4 5 5 5 5 5 4 1 1 2 4 4 6 6 6 5 1 2 4 3 2 2
5 8 12 12 12 10 9 11 11 11 11 10 11 11 12 12 11 10 9 7 5 4 4 6 7 7 7 7 6 4 5 6 2 5 9 7 11 8 7 4 2 0 1
11 11 11 11 10 10 12 12 12 12 12 11 11 11 10 10 10 9 9 8 9 8 7 6 7 7 7 8 9 8 8 7 6 9 11 12 10 9 11 9 6 3 2
11 12 12 13 13 13 14 14 13 12 11 10 8 9 9 10 10 11 11 11 12 12 11 9 7 8 6 7 8 10 10 10 9 9 11 14 12 11 11 11 11 7 5
13 13 14 14 14 13 12 11 11 10 9 8 8 7 8 8 9 10 11 11 12 12 13 12 12 11 8 7 7 9 11 9 9 10 11 12 14 13 12 14 15 15 11
13 14 14 14 13 12 10 8 8 7 7 8 7 7 6 6 7 9 10 10 11 12 13 13 12 13 12 10 10 9 9 12 11 11 12 12 14 15 15 15 18 17 16
13 14 13 14 12 10 9 8 7 7 7 7 7 6 5 6 6 7 9 9 10 10 10 11 12 13 13 13 13 13 12 11 12 12 12 13 14 15 17 16 20 20 18
12 11 11 11 9 8 7 6 6 7 6 5 7 6 5 5 5 4 6 8 9 9 10 10 10 10 10 12 13 13 13 14 13 13 12 13 14 15 16 19 19 20 17
13 12 10 9 7 6 4 4 5 6 5 6 8 7 7 6 5 6 5 5 7 8 10 10 10 11 12 11 11 12 12 12 13 13 14 14 13 16 16 17 20 21 19
11 10 9 8 6 3 1 1 3 4 5 6 9 8 8 8 8 7 7 8 9 10 11 12 12 12 13 14 14 13 12 13 12 13 12 13 14 15 17 18 19 21 22
9 9 9 7 5 4 3 1 1 2 3 5 6 8 8 7 8 10 9 11 11 11 12 11 10 10 11 13 14 14 14 13 11 12 13 13 13 15 14 15 18 19 21
9 10 10 8 8 7 5 3 1 1 2 3 5 6 7 9 9 9 11 11 12 12 12 14 14 15 16 16 15 14 15 14 14 12 11 13 15 12 13 13 13 16 19
8 9 10 10 9 7 6 5 3 4 5 6 8 9 9 10 11 12 12 13 14 15 15 15 15 16 17 18 16 15 15 16 14 14 14 14 13 14 13 13 13 13 14
8 9 10 9 8 8 8 6 5 5 7 7 9 10 11 11 11 12 13 14 16 17 17 16 15 15 15 16 17 18 17 16 15 14 15 17 17 15 14 13 12 14 14
8 9 9 10 10 10 9 9 8 8 10 11 12 12 14 14 14 15 16 17 17 18 18 16 15 15 14 15 18 20 20 17 15 17 18 18 18 19 17 16 14 13 16
11 9 10 11 11 11 10 11 11 12 13 15 16 17 17 17 16 16 17 18 19 19 18 17 16 16 14 14 17 18 20 21 20 19 17 18 18 18 18 17 18 19 19
14 14 14 14 14 13 13 14 15 16 18 19 18 18 18 17 17 17 17 18 19 19 18 16 15 15 14 15 18 18 18 22 23 22 23 21 17 19 17 18 21 23 24
15 15 17 14 13 15 16 15 14 16 17 17 16 17 19 19 19 19 18 19 20 19 18 16 16 16 16 16 18 21 20 20 21 22 25 26 23 22 28 28 26 26 25

GFSSE_500_spd_024.txt.gz
Wind_Speed
11 10 11 17 21 22 21 20 16 18 18 18 19 18 17 17 17 17 16 15 14 13 13 13 13 13 12 15 15 15 14 14 15 14 13 12 13 12 12 11 10 11 11
11 13 16 16 15 12 9 15 19 20 18 19 19 18 18 16 16 15 15 14 12 13 14 13 13 12 12 12 13 12 13 13 12 12 11 10 11 11 11 10 9 9 9
14 12 9 13 14 16 20 18 18 18 18 18 17 16 16 15 15 14 13 12 11 12 14 13 13 12 11 10 10 13 10 11 11 11 12 11 9 7 8 9 9 8 8
11 11 12 14 16 16 17 16 16 16 15 14 15 15 14 14 14 13 14 11 11 11 12 11 12 10 10 8 7 9 10 5 9 8 9 9 9 7 7 7 6 5 6
11 11 12 12 14 13 14 12 12 12 13 13 14 13 13 13 13 14 14 13 12 11 10 10 9 9 9 7 6 5 6 7 3 7 8 8 7 4 4 5 5 5 5
11 11 10 9 9 11 11 11 11 12 12 12 12 12 11 10 11 12 13 12 12 11 10 9 8 7 6 7 5 4 4 7 6 2 2 6 6 5 3 1 4 5 5
10 10 9 9 10 11 11 12 12 11 11 11 10 10 9 9 9 9 9 9 10 9 9 8 7 6 5 3 4 3 0 1 4 1 1 6 5 5 5 2 1 4 4
9 9 9 10 12 13 12 12 12 12 12 12 12 11 10 9 9 7 6 6 6 7 6 6 6 4 4 2 1 4 4 3 2 2 3 4 4 3 4 4 1 2 4
5 8 9 12 14 13 12 13 13 14 14 14 13 13 12 10 8 7 6 4 4 4 5 5 4 3 2 1 1 3 3 6 6 6 4 5 5 3 2 2 2 1 2
6 8 11 13 12 11 12 13 13 13 13 13 14 14 13 13 11 10 9 8 7 5 5 6 7 5 4 3 4 4 5 5 4 5 7 6 7 6 8 5 4 2 3
11 12 11 10 10 12 13 14 13 13 13 13 12 11 11 11 11 11 11 11 9 7 5 5 6 8 6 5 5 5 6 7 8 8 10 11 12 11 11 8 8 5 4
12 11 11 12 14 16 15 14 13 12 11 11 10 10 11 11 12 12 12 12 12 12 12 11 9 7 8 8 8 6 5 6 8 9 11 10 11 12 12 10 10 10 8
12 12 13 15 15 14 13 12 11 10 10 9 9 9 8 9 11 12 12 12 12 13 13 13 13 12 10 10 10 10 9 7 7 7 8 11 12 12 12 12 13 13 13
14 14 14 14 13 11 10 9 9 9 9 8 8 7 7 7 8 10 11 11 10 12 12 12 12 12 12 13 14 13 12 10 8 8 8 7 11 13 14 14 15 18 17
14 14 13 13 11 10 9 8 8 8 9 8 6 6 6 6 7 8 9 9 9 10 10 10 10 11 12 11 12 11 10 11 11 9 8 8 7 10 14 15 17 18 22
12 12 12 11 9 8 8 7 7 7 8 7 7 6 6 6 6 6 8 7 8 8 8 9 9 9 10 10 11 11 11 10 9 9 9 9 9 8 9 13 15 18 19
10 10 10 8 6 5 4 5 6 7 7 7 8 8 8 8 6 4 5 6 5 5 6 9 9 11 11 11 10 10 11 12 12 11 10 8 8 9 9 11 12 15 17
10 9 8 6 4 2 2 2 3 4 5 6 6 6 6 6 6 5 6 5 5 7 9 9 10 12 13 13 13 12 12 12 12 12 12 11 10 9 9 8 10 11 14
10 9 7 6 5 3 1 1 1 2 2 3 4 5 6 7 6 7 7 6 7 9 10 12 13 14 13 14 14 13 14 14 13 13 12 13 12 12 10 9 9 9 11
11 10 10 9 8 5 3 3 3 2 2 0 3 4 5 4 6 7 8 9 9 12 12 14 14 16 15 15 15 15 14 15 15 14 13 13 15 13 12 12 10 9 10
11 12 12 12 9 8 8 7 6 4 4 3 4 6 7 8 7 8 10 12 12 13 14 15 16 16 16 16 15 15 15 15 15 15 14 14 14 16 14 14 14 11 9
10 10 11 11 11 11 10 9 8 7 7 6 7 8 10 12 13 12 12 12 14 14 15 16 17 17 16 16 13 14 16 16 14 13 14 17 18 16 16 16 15 15 13
10 11 12 12 12 11 11 11 10 11 9 9 11 12 14 16 17 16 16 14 14 15 15 15 17 17 14 14 13 12 14 15 14 14 14 15 18 19 17 18 17 15 16
12 12 11 11 11 11 10 12 12 13 13 13 14 16 18 20 19 18 17 16 15 16 16 16 18 17 15 14 14 14 14 13 15 15 16 14 16 18 18 15 16 19 20
14 14 14 13 12 12 13 15 16 16 17 17 18 17 14 15 15 17 17 16 17 16 16 17 17 17 17 17 17 16 17 17 15 16 16 15 15 16 18 17 19 21 24
16 17 15 14 14 14 17 19 19 18 17 16 16 16 15 15 15 17 20 20 20 20 17 16 17 17 17 17 18 18 18 19 21 20 19 19 19 18 19 21 22 22 23

GFSSE_500_spd_027.txt.gz
Wind_Speed
14 14 12 18 21 19 19 13 17 18 19 18 17 15 15 13 13 14 13 12 10 12 12 11 11 12 13 15 16 16 15 15 13 14 13 11 10 10 10 10 9 8 7
13 16 16 14 11 9 9 18 19 19 20 18 17 15 13 12 12 11 12 11 10 12 12 11 10 11 12 12 13 17 15 13 13 13 11 10 10 9 9 9 7 7 7
12 10 9 11 14 16 19 20 18 18 18 17 15 14 11 11 10 10 10 9 9 11 11 11 10 10 10 10 11 9 10 13 11 11 12 10 8 6 7 9 7 6 6
11 11 12 14 17 18 16 17 18 17 16 15 13 11 10 10 9 9 9 9 8 10 10 9 9 8 8 8 9 9 6 2 10 8 10 8 9 8 4 4 5 4 3
8 11 12 13 14 15 15 15 14 14 14 13 12 9 9 9 8 9 9 8 8 8 8 8 6 7 5 6 6 4 4 2 2 6 9 9 6 6 5 3 1 2 3
9 9 10 10 11 12 12 11 12 12 11 10 8 7 7 8 8 8 9 9 9 8 6 6 4 3 4 2 3 2 2 3 4 4 4 8 8 5 4 3 2 0 1
7 8 9 9 9 10 11 11 11 10 9 8 6 6 7 7 7 7 7 7 7 6 6 6 3 1 1 1 1 1 2 2 5 3 5 5 7 7 5 4 3 2 2
5 5 7 7 9 10 12 11 11 10 9 8 7 6 7 7 5 5 6 6 5 5 5 5 4 2 3 1 2 4 4 5 4 4 2 4 4 3 4 5 4 3 3
4 5 6 9 10 11 11 12 13 12 12 11 11 10 9 6 5 4 5 4 4 3 3 3 2 1 1 2 3 3 4 6 8 6 4 4 4 4 2 3 5 4 4
6 5 8 10 10 11 12 14 14 14 14 14 14 13 11 10 9 8 7 6 5 4 4 4 3 2 2 2 4 5 4 4 4 9 5 7 7 6 6 7 5 5 4
9 10 11 9 9 11 12 14 14 14 13 12 12 13 12 11 12 12 10 9 7 6 5 5 6 7 6 5 5 4 4 5 7 5 7 10 10 10 10 9 8 7 6
12 11 11 12 14 15 14 14 13 12 11 10 11 12 12 12 12 12 13 13 12 13 11 12 13 14 13 12 9 7 6 6 9 5 6 8 9 9 10 10 10 10 10
13 13 14 17 16 15 13 12 11 10 10 10 10 10 10 10 10 11 11 12 12 12 11 13 14 14 14 13 14 12 10 7 3 8 6 7 9 7 8 10 10 11 12
14 15 16 15 14 12 12 10 9 9 9 9 8 8 8 8 8 9 10 10 9 10 9 10 10 10 10 11 11 12 12 12 9 6 9 11 10 10 10 10 12 12 12
14 15 14 12 11 11 10 9 9 9 8 7 7 7 6 6 7 7 8 8 8 9 8 8 8 8 8 8 9 9 10 10 10 10 8 6 7 8 11 11 13 15 14
14 13 12 10 9 9 8 8 9 8 7 7 6 5 4 5 5 5 6 5 3 5 6 6 7 7 8 9 10 11 12 12 12 11 9 11 11 9 7 9 11 14 15
12 12 10 8 7 6 5 5 6 7 7 7 7 7 6 4 3 2 3 1 2 4 4 5 7 8 10 11 11 10 11 13 14 14 12 9 9 11 11 9 8 11 13
11 10 8 6 5 4 2 2 2 3 5 6 6 7 5 4 5 3 3 2 4 5 6 8 9 11 12 12 12 12 12 13 14 15 13 11 9 8 10 11 9 8 10
9 8 7 6 5 3 2 2 2 2 2 3 4 5 4 3 3 3 4 6 8 10 10 10 12 12 13 14 12 12 13 14 14 14 14 13 12 11 10 11 11 11 9
10 10 10 8 6 5 5 4 4 3 3 1 0 0 1 0 3 5 6 7 10 12 13 13 14 15 15 16 14 13 13 13 14 14 13 13 13 13 12 12 11 11 11
11 11 11 10 9 8 7 6 6 6 5 4 4 5 5 6 6 8 10 12 14 15 16 17 16 17 18 18 16 14 13 13 13 13 13 14 15 16 16 16 14 13 13
13 12 12 12 11 9 9 9 9 8 8 8 7 8 9 9 11 13 13 13 15 15 16 17 18 18 19 20 18 16 13 14 15 13 13 15 15 15 17 17 18 18 14
10 11 11 9 10 10 10 10 11 10 10 11 11 12 12 14 15 16 16 16 16 18 17 17 17 19 20 19 18 17 15 15 14 14 14 14 14 15 15 16 16 15 14
11 11 11 10 9 9 9 10 12 13 14 15 15 16 17 17 15 15 15 15 16 18 20 20 20 19 19 19 19 18 17 17 17 14 14 16 16 17 16 17 17 16 16
12 13 13 12 12 10 10 12 14 16 18 19 19 18 16 16 16 16 16 16 18 20 22 22 22 22 20 21 22 20 19 18 19 19 17 13 17 18 19 18 19 18 19
17 16 16 15 15 13 13 15 17 19 22 20 18 17 16 16 18 20 23 24 24 23 24 25 25 24 23 22 23 24 23 22 21 20 22 20 19 19 21 22 22 22 21

GFSSE_500_spd_030.txt.gz
Wind_Speed
11 11 17 22 23 17 11 8 17 15 14 15 16 15 12 10 10 10 10 11 10 12 13 12 13 15 16 18 19 17 18 17 16 16 15 13 11 11 11 9 8 8 7
16 18 18 15 12 15 14 17 18 16 15 16 14 13 10 9 9 9 9 11 10 12 12 11 11 12 12 14 17 17 15 17 14 13 13 12 10 9 9 8 7 5 4
13 13 14 17 18 17 17 18 17 16 14 14 12 11 9 8 8 8 8 10 11 11 10 10 9 10 10 12 8 7 13 14 12 12 12 12 8 9 7 7 6 5 3
15 15 17 16 16 16 17 15 15 15 12 12 11 11 10 8 8 8 8 9 9 9 8 9 7 8 8 8 7 6 4 8 11 10 12 7 8 10 7 5 4 4 3
13 15 14 14 15 15 15 14 14 13 12 12 12 12 10 9 11 10 9 10 9 7 6 6 6 5 5 5 3 3 2 3 4 7 8 8 10 7 7 7 5 2 2
14 13 13 13 13 13 13 13 13 12 11 11 11 11 10 9 10 10 10 10 9 7 6 5 3 3 3 3 3 3 1 3 2 3 7 8 10 8 5 5 5 4 3
12 12 11 11 10 11 11 12 12 10 10 9 9 8 8 8 8 8 8 8 8 8 7 6 4 2 2 2 3 5 6 5 5 7 3 3 8 7 7 7 6 4 4
9 9 9 9 8 11 12 12 11 11 10 10 8 7 7 6 6 7 7 6 6 5 4 4 3 3 3 3 4 5 5 6 8 5 2 3 3 3 4 6 6 5 4
5 6 6 7 8 11 11 13 13 13 13 13 12 10 7 6 6 6 5 4 4 3 2 2 3 3 5 5 4 4 4 6 6 2 3 3 4 4 2 3 5 5 4
4 4 6 8 9 12 13 13 14 15 16 15 14 12 10 8 8 6 6 6 5 6 5 5 4 4 5 8 6 5 9 6 7 12 5 4 5 6 6 5 5 4 4
6 7 8 8 11 12 13 14 14 14 14 14 13 13 11 10 10 10 13 12 12 12 12 11 11 6 7 7 5 6 7 7 7 4 2 2 3 7 7 7 7 7 5
9 10 8 10 12 14 14 14 13 12 12 12 12 12 11 12 12 12 13 13 9 14 15 9 13 9 5 9 14 11 10 9 11 5 7 10 6 5 5 8 7 8 8
11 12 13 14 15 14 13 12 11 11 10 10 10 10 10 11 12 11 11 11 5 4 13 8 8 15 15 16 15 11 7 11 14 25 17 11 10 8 6 6 7 8 8
14 15 16 14 14 13 12 11 10 10 9 8 8 7 8 9 9 9 10 10 8 10 6 10 11 11 10 9 9 10 10 12 15 15 10 10 11 10 8 7 8 9 10
17 17 15 14 13 12 11 10 9 8 7 7 6 6 6 6 6 6 6 7 7 5 6 11 7 7 8 8 9 10 11 13 14 15 12 10 11 12 11 9 8 11 12
18 16 14 13 12 11 10 9 8 7 5 5 4 4 5 4 4 2 2 5 5 6 6 7 7 7 7 8 8 9 11 11 12 10 8 10 10 11 12 12 10 11 12
15 14 13 11 10 8 8 7 5 5 5 5 4 5 5 4 2 1 1 4 6 7 6 8 9 10 10 9 8 12 11 12 12 13 11 6 9 10 10 12 12 13 12
14 13 12 10 8 5 4 4 4 3 4 4 3 3 4 3 3 2 3 4 5 7 8 10 11 13 13 13 13 12 12 11 12 13 12 11 6 8 11 11 12 11 13
12 11 9 8 5 3 1 2 1 1 2 3 3 3 2 3 3 3 5 7 10 10 11 11 12 13 14 16 15 14 14 12 13 13 12 11 11 8 10 11 11 12 12
9 8 7 6 5 3 2 1 1 1 2 2 0 1 2 3 4 6 8 10 12 13 14 14 16 16 15 16 16 16 16 13 13 13 12 11 12 13 12 12 10 13 13
8 8 8 7 6 6 5 4 4 3 3 3 3 4 4 6 7 8 10 13 13 16 15 16 16 17 16 17 16 14 16 17 15 14 11 11 12 13 13 15 13 13 13
8 8 8 8 9 8 8 7 6 6 6 6 6 7 8 9 11 13 14 14 16 16 16 18 20 19 18 20 18 16 13 14 16 17 14 12 10 11 13 15 12 12 9
8 9 9 9 9 8 9 7 6 7 8 9 9 9 10 13 15 15 15 16 16 17 19 20 22 23 21 22 20 18 17 16 15 14 18 16 13 11 11 14 13 10 11
11 10 10 9 10 10 8 8 8 9 11 11 12 13 14 15 14 13 13 14 17 19 21 22 24 25 24 23 23 21 20 20 18 17 13 20 19 17 14 14 15 14 12
14 13 13 12 11 11 11 12 11 11 12 14 15 15 13 12 11 12 14 16 18 18 18 20 26 27 27 25 25 23 22 23 23 21 21 17 18 21 22 18 17 17 17
16 15 14 15 15 14 14 14 13 11 12 14 12 11 10 9 9 11 16 21 23 23 26 29 34 32 29 27 25 25 24 23 23 24 24 22 25 23 19 23 23 21 19

GFSSE_500_spd_033.txt.gz
Wind_Speed
15 15 20 21 16 13 8 13 10 13 12 13 13 11 10 10 10 9 10 10 9 11 12 15 16 17 18 18 17 18 18 18 17 17 16 15 13 12 11 11 10 10 8
22 17 15 12 12 12 16 15 14 12 11 13 13 10 9 10 11 10 11 9 10 10 11 13 12 14 14 17 17 18 19 18 15 15 15 15 13 11 11 10 8 7 6
15 16 17 17 16 15 15 14 13 13 13 13 12 10 10 11 10 9 10 11 10 10 10 10 11 12 12 12 11 10 16 16 15 11 13 14 11 10 9 8 7 5 4
17 17 17 17 16 15 15 13 14 14 13 12 11 11 11 11 9 10 10 10 11 10 9 8 9 10 9 10 10 9 10 12 13 10 12 10 10 9 9 8 7 5 5
15 16 16 15 14 14 14 14 14 13 13 12 12 12 12 12 13 12 11 11 10 9 7 7 8 7 7 7 5 5 4 5 6 9 10 8 7 10 8 8 7 4 3
15 15 14 14 14 15 14 15 14 12 12 11 10 11 12 11 11 11 12 11 10 8 7 6 5 5 4 3 4 3 2 4 1 2 7 6 8 11 10 7 7 5 3
13 12 12 13 14 12 13 14 13 12 9 9 10 11 10 9 10 10 9 8 8 8 9 8 7 4 3 3 3 3 2 2 5 10 8 6 7 10 12 10 7 4 3
10 10 10 11 12 13 14 14 14 12 10 11 11 9 9 7 8 7 7 7 6 6 6 5 4 4 3 3 4 5 5 4 10 13 13 8 6 6 9 10 8 5 4
7 8 10 11 12 14 15 15 15 15 14 14 12 11 10 9 9 8 8 7 6 6 6 4 4 4 5 7 7 7 8 10 13 9 12 9 5 2 4 4 5 5 4
5 8 11 12 14 15 16 17 17 16 15 15 14 14 13 11 11 9 9 10 9 8 7 9 6 4 7 6 5 7 8 11 9 10 9 6 4 3 2 2 1 1 2
9 11 12 15 15 15 16 16 16 15 15 15 14 14 13 12 14 12 14 15 14 14 12 12 11 12 10 10 12 12 14 14 17 9 12 6 1 2 2 4 3 2 2
13 13 13 15 15 15 14 13 12 14 13 14 14 14 13 12 13 10 14 15 14 14 13 13 13 12 8 9 13 12 11 15 19 18 13 5 6 3 2 5 7 3 4
13 15 15 15 16 14 13 11 11 12 11 11 11 11 11 11 12 4 13 11 15 8 9 12 10 9 11 10 12 13 12 14 14 13 11 7 7 5 3 3 7 5 5
15 17 16 15 15 13 11 11 11 11 10 7 8 9 9 9 10 8 10 12 11 10 11 7 10 12 11 8 10 11 13 14 15 10 13 12 12 10 7 5 6 7 8
18 17 16 15 14 12 12 10 10 9 7 6 6 6 6 7 7 7 8 9 9 7 8 9 12 13 12 15 15 15 16 14 12 10 8 11 10 10 11 10 8 8 8
18 17 15 15 12 12 11 9 7 6 6 6 4 6 4 3 5 4 7 7 7 8 8 10 10 10 12 14 15 13 13 13 11 11 11 10 10 11 10 9 9 10 10
17 16 14 13 13 12 10 8 8 6 6 6 6 6 4 5 3 5 6 8 9 11 11 10 10 10 10 10 14 17 16 15 14 11 8 10 10 10 10 10 9 10 10
16 16 13 11 11 10 8 8 8 7 6 6 5 4 4 5 5 4 4 6 9 11 12 12 12 13 12 11 10 11 12 12 12 13 11 6 8 9 9 11 10 9 9
14 13 10 7 7 7 7 5 6 6 5 5 5 4 3 3 3 3 5 6 7 10 12 13 13 13 14 14 11 11 11 12 11 12 12 9 5 8 10 11 12 11 11
11 10 9 8 4 3 4 3 4 4 4 4 2 1 3 4 5 6 9 11 13 13 13 14 15 15 15 14 14 13 11 10 11 11 11 11 8 8 10 11 12 11 11
8 8 7 6 6 4 3 3 3 4 3 3 1 1 4 6 7 8 9 12 12 14 14 15 16 19 20 18 17 16 15 12 12 12 13 10 12 10 10 10 12 11 9
8 7 7 7 7 6 6 4 3 4 4 3 2 4 6 7 9 10 11 12 12 14 15 16 18 20 23 22 20 18 15 18 16 14 14 13 9 13 9 11 11 11 12
7 7 7 7 7 8 8 6 5 6 5 5 4 6 8 9 10 8 7 8 11 14 15 17 19 19 22 27 24 20 17 15 14 16 17 14 13 10 13 10 11 13 11
6 6 8 8 9 8 8 8 7 6 6 6 6 9 10 11 8 7 7 8 11 14 17 19 22 21 24 23 26 22 20 17 14 13 15 17 17 13 15 12 11 11 14
10 11 11 10 11 10 10 9 9 8 6 7 7 7 6 6 5 6 5 11 13 17 19 24 27 32 32 25 23 24 22 21 19 16 15 15 16 20 18 17 17 15 15
11 12 13 13 11 13 13 12 11 9 7 8 5 3 4 3 5 3 7 12 17 20 22 24 25 30 29 19 27 24 21 21 20 20 18 18 18 16 16 19 22 23 21

GFSSE_500_spd_036.txt.gz
Wind_Speed
15 20 17 14 11 9 10 10 9 10 11 11 12 13 12 13 14 13 11 13 15 17 19 17 15 17 15 16 16 15 15 15 13 14 14 15 14 14 14 13 11 11 9
20 16 13 9 10 12 11 10 10 10 11 11 12 12 12 12 13 12 10 11 13 14 13 13 13 15 14 15 14 14 14 11 12 12 13 15 14 12 13 14 13 9 6
17 18 15 11 10 11 11 11 10 11 12 13 12 12 12 12 12 11 12 12 10 10 9 9 9 11 10 8 9 11 14 12 11 8 11 11 13 11 13 12 11 9 6
18 20 16 14 13 12 12 11 12 14 14 14 12 12 12 12 10 10 12 12 10 9 8 7 6 7 7 6 7 6 8 10 10 7 10 10 9 9 11 12 10 10 7
19 17 15 13 13 13 13 13 13 14 15 14 13 13 13 12 11 11 11 10 9 7 6 6 5 4 4 5 6 7 6 5 6 8 9 8 8 8 6 8 9 9 8
16 14 14 14 13 13 13 14 13 13 13 13 12 11 12 11 11 10 10 9 8 6 4 3 3 3 4 5 5 6 6 5 1 3 7 7 5 7 8 6 8 9 8
14 13 13 13 14 14 13 13 12 11 11 10 10 11 11 10 10 8 7 7 6 5 5 6 6 6 6 6 6 5 2 5 6 7 4 4 4 7 8 8 7 6 6
13 12 13 13 15 14 13 13 12 11 11 11 10 10 9 8 8 7 7 5 5 5 7 8 9 9 8 8 7 7 7 9 11 11 16 8 3 6 7 8 7 6 5
10 14 13 15 15 15 14 14 14 14 14 14 12 11 12 12 12 11 9 8 7 6 6 8 9 9 9 10 13 12 12 15 13 3 19 9 4 2 3 5 4 5 5
10 14 15 16 17 16 16 16 17 16 16 16 14 14 15 17 16 14 11 11 11 11 11 14 12 12 13 13 13 14 18 25 16 10 20 10 3 4 5 4 4 2 3
13 15 17 18 17 16 17 17 17 15 16 14 13 15 16 16 16 15 15 14 15 16 15 15 12 13 14 15 15 16 18 18 20 14 10 4 3 3 6 6 4 3 3
14 17 18 18 17 15 14 14 14 13 14 14 12 14 15 15 15 15 14 13 15 15 12 15 13 14 13 13 14 15 16 16 14 14 9 6 1 1 4 7 6 5 5
16 20 18 17 15 13 13 12 12 12 11 13 11 13 14 14 14 11 10 14 13 13 13 11 11 11 12 13 15 15 16 14 12 13 11 10 9 7 3 3 5 5 5
19 19 18 16 14 12 11 11 11 11 10 10 9 10 13 12 12 12 12 12 10 12 12 8 9 9 10 11 12 14 13 13 13 5 9 9 9 7 5 5 3 4 5
20 18 17 14 12 11 11 11 10 9 9 10 8 7 10 9 8 9 8 10 10 11 10 12 11 10 11 11 9 10 13 13 13 11 11 10 11 10 7 5 6 6 4
20 19 17 14 11 11 11 11 10 9 9 9 8 7 8 5 6 6 8 9 8 10 10 12 12 14 13 13 12 12 10 10 11 11 11 10 10 9 8 8 7 7 6
20 18 15 12 11 11 11 11 12 10 11 10 8 6 6 6 7 8 8 8 9 10 12 12 11 10 11 10 13 13 11 10 9 9 9 9 7 7 8 7 9 9 8
19 18 14 12 11 11 11 12 12 11 9 9 8 5 6 8 8 7 7 9 10 11 11 12 13 15 15 14 13 13 12 9 9 8 8 10 9 8 9 10 8 9 9
17 15 13 11 9 10 11 11 11 10 10 8 7 8 5 5 6 7 7 8 10 12 13 14 16 17 19 18 17 15 13 10 8 9 7 8 10 9 10 9 8 10 10
15 14 11 8 7 7 9 10 10 9 7 6 5 5 4 4 5 6 8 8 10 10 10 11 12 13 14 16 17 16 14 12 11 8 9 10 10 11 12 11 10 11 9
14 11 8 7 6 4 5 6 7 7 6 5 3 2 1 2 3 5 9 8 7 7 8 9 11 13 14 15 18 19 15 11 11 11 9 9 10 11 11 11 11 11 8
13 10 9 7 4 3 2 3 5 6 5 4 3 2 2 3 6 8 6 6 6 8 10 12 17 20 20 19 19 18 17 14 13 10 10 11 11 9 11 11 12 12 11
8 8 8 9 6 4 4 3 4 5 6 5 5 5 5 6 8 8 6 7 8 11 15 16 18 21 24 23 21 18 14 12 13 16 12 10 13 12 8 11 13 12 13
6 3 4 6 8 7 6 6 6 6 7 7 8 8 9 9 8 7 4 4 8 12 15 16 19 19 26 24 13 14 15 11 9 12 14 15 12 14 13 9 12 14 14
3 4 5 5 6 7 9 8 7 7 6 8 10 10 10 10 7 5 1 5 11 15 16 16 15 24 22 24 23 18 14 10 9 10 11 13 16 15 14 14 13 13 16
6 7 9 9 9 7 10 11 11 8 9 9 12 11 10 9 3 2 3 6 11 13 15 15 16 19 25 27 26 25 17 12 10 8 10 13 13 16 18 16 15 18 21

GFSSE_500_spd_042.txt.gz
Wind_Speed
19 17 12 9 11 11 10 10 11 14 15 14 13 12 11 11 10 14 15 15 16 15 17 16 17 17 17 15 16 17 16 15 12 10 10 10 10 10 11 11 10 8 5
18 14 11 11 9 10 10 12 12 14 13 13 12 11 11 11 13 15 13 13 14 16 15 14 15 16 16 14 13 11 11 12 11 11 10 10 10 9 11 11 10 8 5
16 14 10 10 10 11 12 13 13 12 12 12 11 10 11 14 16 16 14 13 14 14 12 12 12 13 11 10 11 12 11 9 9 8 10 9 10 9 8 9 9 7 6
16 14 11 9 11 13 13 13 12 12 12 12 12 13 14 15 16 17 15 14 12 11 9 9 8 8 8 8 7 7 7 7 7 6 7 9 10 9 8 7 6 6 5
15 14 10 10 12 13 13 12 12 13 13 14 14 15 15 16 16 16 14 13 11 9 8 7 7 7 6 7 6 6 5 4 5 6 6 9 8 8 7 5 5 5 5
12 13 11 12 13 13 13 13 12 13 14 14 14 15 15 14 16 15 15 12 12 11 9 9 7 8 8 8 6 5 3 2 2 4 6 6 9 6 5 5 5 4 2
10 12 12 12 13 14 13 12 13 14 14 13 15 13 13 13 13 13 12 12 13 11 9 8 9 8 9 8 8 9 11 7 5 5 5 8 8 8 4 4 4 3 3
12 12 11 13 15 14 12 13 14 14 13 14 13 11 12 12 12 11 10 11 11 11 11 12 11 11 12 13 14 14 16 10 8 8 8 9 9 10 8 4 3 3 2
10 14 14 16 15 14 14 15 15 15 15 15 14 13 14 15 14 15 14 15 16 17 18 19 17 15 15 15 14 15 24 15 9 9 14 8 6 6 7 4 3 3 3
10 15 17 17 16 16 15 16 17 18 18 17 16 17 17 18 19 19 20 21 19 16 16 17 15 15 16 15 15 20 25 27 18 20 16 6 3 2 1 2 2 1 1
11 15 17 18 17 17 16 16 17 18 18 17 16 18 19 19 20 20 19 18 17 17 16 15 16 15 16 15 15 17 20 19 15 12 7 5 2 4 5 5 5 6 5
13 16 17 19 18 18 17 17 16 17 17 16 16 18 19 18 16 18 16 16 17 15 15 14 14 14 14 14 15 16 18 15 15 12 7 1 3 5 5 4 7 6 6
16 17 17 18 17 17 17 16 17 17 16 15 16 16 15 15 16 16 15 16 15 15 14 13 13 12 12 14 14 14 15 12 12 10 8 7 5 5 3 2 4 5 6
17 17 16 16 15 15 16 16 16 15 16 15 15 15 15 14 14 13 12 12 12 12 11 11 11 10 10 10 11 11 11 10 9 8 7 7 6 4 3 4 2 2 5
19 17 16 15 13 13 15 14 14 14 14 14 14 14 12 11 12 11 11 10 10 10 10 9 8 8 8 7 8 8 9 9 9 8 8 7 7 6 4 3 3 3 2
18 18 16 14 13 14 15 13 13 12 12 11 11 12 11 9 10 10 10 9 8 8 9 7 7 7 7 5 5 5 6 8 7 8 7 6 6 5 5 4 4 4 3
20 18 15 14 14 15 15 14 13 11 12 12 11 10 10 9 10 10 9 8 8 9 8 7 7 6 7 7 6 4 5 5 5 5 6 6 4 4 5 6 5 5 5
20 17 13 13 13 15 15 14 13 12 11 10 9 10 10 9 9 9 6 5 7 8 9 10 9 10 10 9 8 7 5 5 5 5 5 5 4 4 5 6 6 6 7
18 15 13 13 14 15 16 15 14 12 11 11 11 9 7 7 5 4 3 5 8 10 11 13 13 13 13 12 11 9 7 6 6 5 4 4 5 4 5 7 7 9 8
16 11 11 13 15 16 15 14 13 13 11 10 8 8 6 4 2 2 4 7 9 11 12 12 13 14 15 19 20 13 8 6 7 5 4 4 4 5 6 7 7 7 8
14 9 9 11 12 13 15 14 11 9 9 8 6 4 3 2 1 3 6 8 7 8 9 10 12 15 17 21 19 10 5 7 7 6 5 5 3 4 6 7 7 6 7
15 10 8 9 10 11 10 11 11 10 8 7 5 4 4 3 3 5 5 6 5 6 10 13 14 16 20 18 18 13 4 6 7 7 5 4 5 5 6 8 9 9 9
14 11 10 8 7 8 8 9 10 11 10 9 8 8 7 5 6 7 4 2 3 8 13 13 14 15 15 15 18 18 9 7 5 5 4 5 5 6 8 9 9 9 10
16 15 13 9 7 6 6 8 10 11 11 10 10 9 8 7 8 7 3 2 2 8 12 12 12 13 15 16 15 18 16 9 4 6 7 7 7 6 8 10 10 10 10
12 10 12 12 11 10 10 10 10 11 12 12 11 9 8 8 8 5 4 4 4 8 11 13 14 10 15 15 15 15 17 14 8 6 6 7 8 9 9 10 11 11 11
17 15 12 10 10 11 12 14 14 13 12 14 12 7 8 8 7 4 5 5 5 7 12 12 9 9 12 11 12 14 16 14 11 7 5 6 10 12 16 18 14 12 12

GFSSE_500_spd_045.txt.gz
Wind_Speed
16 13 8 12 11 11 10 14 16 15 15 15 14 14 14 13 14 14 14 15 17 18 18 17 17 16 15 14 15 16 15 12 10 9 10 11 13 15 15 14 11 8 6
15 11 9 14 10 11 12 16 15 14 15 14 15 14 14 13 13 16 16 15 16 16 15 14 14 15 14 14 13 11 11 10 10 8 9 11 12 13 14 12 10 7 5
14 13 11 11 10 12 14 15 14 13 15 14 14 14 14 14 14 16 15 15 15 14 13 11 11 10 9 10 10 10 9 9 7 8 9 9 11 12 12 10 9 7 5
13 11 11 10 13 13 12 14 13 14 14 14 14 14 15 16 16 16 15 14 13 12 10 10 10 10 10 7 5 4 6 5 6 6 8 10 11 11 10 8 6 5 4
12 12 10 11 13 12 13 13 14 14 14 14 14 14 16 16 16 16 15 13 11 10 8 9 9 8 7 6 4 4 2 3 4 4 7 9 10 9 8 7 5 4 3
10 11 11 11 13 13 14 14 14 15 14 15 15 15 16 17 17 17 15 13 12 10 10 9 9 8 7 6 5 4 1 5 3 3 6 8 8 7 6 4 4 3 2
9 11 11 12 15 15 15 15 14 15 15 15 15 15 14 15 16 15 14 12 11 10 9 9 9 10 11 11 9 9 8 5 10 7 6 8 8 7 7 4 3 2 1
10 12 13 15 15 15 16 15 15 14 14 14 14 15 15 13 14 13 12 12 13 14 15 14 14 12 12 14 14 17 11 5 12 12 8 10 11 9 9 7 3 2 1
9 15 17 17 16 15 17 16 16 16 16 17 17 16 17 17 17 16 17 18 18 18 17 16 15 13 13 15 19 22 22 17 16 15 10 8 7 6 7 7 5 3 2
10 15 18 18 17 17 18 17 17 18 18 18 18 19 19 19 21 21 20 17 18 19 16 15 15 13 14 15 18 21 23 23 13 16 10 6 3 1 2 3 4 3 1
12 15 17 18 18 19 19 18 18 20 20 19 20 21 20 21 20 18 18 18 16 17 16 14 14 14 14 15 17 17 19 18 16 11 7 2 1 2 4 6 6 5 4
15 16 17 18 19 18 18 17 18 19 19 19 20 20 19 19 18 16 16 16 14 15 13 13 13 12 11 12 15 15 13 12 11 8 5 3 3 4 4 4 7 6 6
17 18 18 18 18 18 18 18 19 19 18 18 20 18 16 17 15 16 15 13 13 12 11 12 11 11 10 9 10 11 11 10 8 6 4 4 2 2 2 1 3 6 6
18 18 18 17 17 17 17 18 19 18 18 18 18 16 16 16 15 13 13 11 10 10 9 8 7 7 8 8 8 6 6 6 7 5 4 3 3 2 2 2 2 1 3
19 18 17 16 16 15 16 17 18 17 17 16 16 15 15 13 13 12 11 10 10 7 5 6 5 5 5 5 7 7 7 6 4 4 5 5 5 4 2 2 2 2 2
19 18 17 16 15 15 15 15 16 16 15 15 14 13 12 13 12 11 9 9 8 7 6 6 6 7 7 7 7 7 8 8 6 5 5 6 5 4 5 4 4 3 3
20 18 17 16 16 16 16 15 14 14 14 13 12 12 11 11 10 9 8 8 7 7 8 7 6 6 6 7 9 9 7 8 6 6 6 6 4 5 5 6 5 4 5
20 18 15 16 17 17 16 15 14 13 13 13 12 13 11 10 8 7 8 9 10 10 8 8 8 7 7 8 8 8 10 9 8 6 5 6 5 4 4 5 5 6 5
21 17 15 16 16 17 17 16 14 14 13 12 11 11 9 7 6 6 8 9 9 8 9 10 8 11 11 12 13 8 6 8 8 7 5 4 5 4 4 4 5 4 5
19 16 14 14 16 17 17 16 15 15 13 12 10 8 6 3 2 4 6 7 6 6 8 10 11 11 14 15 14 10 3 2 5 6 7 5 5 5 5 5 4 5 6
16 13 13 13 13 16 17 17 17 15 15 13 11 8 5 2 1 3 4 4 3 4 9 12 14 16 16 17 15 10 2 1 4 5 5 5 5 5 5 6 7 7 6
18 15 13 14 14 15 15 14 15 15 14 11 8 6 3 1 1 3 3 1 2 3 9 13 14 16 14 14 15 15 7 3 2 3 5 5 6 5 4 6 7 8 8
16 13 12 13 13 14 15 14 14 13 12 10 8 5 3 3 4 5 4 3 1 5 10 13 15 13 14 13 13 14 12 8 3 1 2 4 5 6 5 7 8 8 8
19 18 15 12 11 11 10 11 12 11 11 10 8 6 4 4 7 7 5 5 4 5 9 13 13 11 13 11 10 11 12 10 6 4 2 2 3 4 7 9 11 9 9
18 16 17 17 14 14 14 13 12 11 11 9 9 8 6 6 8 7 7 5 5 6 8 9 9 8 10 10 9 10 11 10 8 6 5 5 6 8 8 13 14 10 8
20 20 18 16 16 15 15 16 14 14 13 12 12 10 9 7 9 7 8 6 5 6 7 5 5 6 10 9 10 11 9 8 8 7 7 7 6 8 9 8 8 8 8

GFSSE_500_spd_048.txt.gz
Wind_Speed
9 7 5 11 10 12 15 16 16 16 16 17 15 16 15 15 15 16 15 16 17 17 16 16 15 14 14 13 13 12 12 11 10 9 10 12 17 17 15 13 11 10 8
8 8 15 13 11 13 14 16 16 16 17 16 15 17 16 16 15 15 15 15 15 15 14 14 14 13 12 10 10 10 10 10 11 9 9 11 14 16 14 12 9 6 5
7 12 10 10 13 13 14 16 16 17 17 15 16 16 16 16 14 13 14 13 13 13 11 11 10 8 6 7 8 8 9 8 8 8 9 10 12 14 13 10 8 5 3
14 9 9 10 11 12 15 16 16 17 16 16 16 16 17 16 15 13 13 13 13 11 10 9 8 7 6 6 6 5 5 6 6 6 8 10 11 11 11 9 7 5 3
9 10 10 10 11 13 14 15 16 16 16 16 16 16 16 15 14 13 12 12 11 9 9 9 7 6 5 6 3 1 2 4 6 7 7 9 10 10 9 8 6 4 3
8 10 10 10 12 13 14 15 16 16 15 15 15 15 16 15 14 12 11 12 12 11 9 9 7 7 6 5 3 3 5 6 6 8 8 8 9 9 8 6 5 4 3
6 11 11 11 12 13 15 15 15 15 14 14 14 15 15 15 14 13 11 11 10 10 10 10 11 12 11 8 8 8 9 6 11 8 7 7 7 7 7 7 5 3 1
8 12 13 13 13 14 15 15 15 13 13 13 13 14 14 13 12 12 12 13 13 15 15 14 13 13 13 13 15 12 1 8 16 10 8 7 7 8 6 6 5 3 1
9 14 16 14 13 14 15 15 14 13 14 14 14 15 16 15 15 15 17 17 16 16 15 14 12 13 13 14 19 22 16 15 17 12 9 8 6 6 4 4 4 3 2
11 15 16 15 15 15 16 16 16 16 16 18 18 18 18 19 19 17 15 16 15 15 15 14 13 13 14 16 17 21 19 16 15 10 7 5 3 2 1 1 1 2 1
13 15 16 16 17 17 17 17 18 17 18 20 21 21 20 18 18 16 15 15 15 15 13 12 12 12 13 14 15 16 16 15 12 9 6 2 1 1 3 4 6 6 4
16 16 17 17 19 18 17 19 19 19 19 21 21 21 20 17 15 14 14 14 13 13 12 11 10 9 9 12 12 13 11 9 6 2 2 4 5 5 4 5 5 6 6
19 19 18 19 19 18 18 19 19 19 19 19 18 16 16 14 14 13 12 11 10 10 10 9 8 8 8 9 9 8 9 7 5 3 2 3 3 3 2 2 2 5 7
20 20 19 19 19 18 19 19 18 18 18 18 16 16 14 13 12 11 10 9 8 9 10 11 11 11 10 8 9 8 6 5 5 4 3 3 3 1 1 2 2 2 4
21 21 20 20 19 18 19 20 19 18 17 17 16 15 12 11 10 9 8 7 7 7 5 6 8 8 8 10 10 9 9 7 4 3 3 3 2 3 2 1 2 3 4
23 22 20 19 18 18 17 18 18 17 16 16 15 14 12 10 9 7 6 7 6 4 4 4 6 7 8 9 10 9 9 8 7 6 4 4 3 3 4 3 3 4 5
24 22 20 19 18 18 18 18 17 16 14 14 13 12 11 10 9 6 6 7 6 5 6 6 5 7 8 10 10 9 8 8 8 6 5 3 2 3 3 3 2 3 6
25 22 20 19 19 19 18 17 16 14 13 12 12 11 11 10 8 7 6 6 5 5 6 7 8 9 8 8 9 12 9 8 7 5 5 4 4 3 2 3 3 3 5
26 22 20 19 19 18 17 16 15 15 14 13 13 11 10 10 8 6 5 4 3 5 8 10 9 9 10 10 10 10 6 5 5 5 5 6 5 5 5 5 5 6 6
23 21 18 18 18 17 16 16 16 16 16 15 13 11 9 7 6 4 4 2 3 5 10 14 12 10 11 14 14 7 1 2 4 5 5 6 6 5 5 5 5 5 6
20 16 15 15 16 16 16 17 18 18 16 15 12 10 8 5 4 2 1 0 1 4 10 13 12 12 13 14 13 11 4 1 2 3 3 4 5 5 6 6 6 7 7
20 17 16 16 17 18 17 16 14 14 14 12 10 9 7 5 3 2 2 1 1 3 9 12 10 11 14 11 13 13 10 6 2 1 2 4 4 4 5 6 7 8 9
21 18 18 19 18 19 18 17 16 15 15 14 10 8 7 6 3 2 3 3 2 3 7 9 9 9 11 9 11 12 11 9 7 4 2 4 4 4 4 7 10 9 8
21 22 20 19 18 18 18 18 18 17 15 13 12 11 8 6 4 4 4 5 5 3 5 4 7 10 11 10 10 12 10 8 7 6 4 3 4 5 6 6 11 8 7
23 22 21 21 20 18 18 19 17 16 15 13 13 12 9 5 5 5 6 5 5 4 5 4 7 9 11 10 10 10 7 7 6 5 6 4 4 6 7 8 6 5 4
22 22 23 22 20 20 19 17 16 16 15 15 15 12 8 7 6 8 7 6 6 4 5 3 6 9 10 10 10 10 7 6 6 5 5 4 4 4 4 5 5 4 3